User: anonymous
Location: Goheenville
(40.9070°N, 79.3720°W)
Time: 20:19:14
(UTC-04:00)
Language:

NOAA 11 - Orbit

View from above orbital plane
View from above orbital plane
View from above satellite
View from above satellite

Ground track
Ground track

The orbit data is extracted from the following two-line orbital elements,

1 19531U 88089A   14265.30558921 -.00000017  00000-0  13360-4 0  9720
2 19531 098.6744 341.5457 0011327 026.2185 333.9560 14.15096499341472
Epoch (UTC): 22 September 2014 07:20:02
Eccentricity: 0.0011327
inclination: 98.6744°
perigee height: 834 km
apogee height: 850 km
right ascension of ascending node: 341.5457°
argument of perigee: 26.2185°
revolutions per day: 14.15096499
mean anomaly at epoch: 333.9560°
orbit number at epoch: 34147

The dashed part of the orbit path shows where the satellite is in the earth's shadow,  

DLR